Location: B?ogocice
(50.2413°N, 20.2361°E)
Time: 23:07:44
(UTC+00:00)

Cosmos 2082 - Pass Details

Date: 15 June 2024
Orbit: 834 x 853 km, 71.0° (Epoch: 18 July)

Event Time Altitude Azimuth Distance (km) Brightness Sun altitude
Exits shadow 00:03:41 21° 194° (SSW) 1,814 4.8 -14.1°
Maximum altitude 00:07:32 70° 115° (ESE) 892 3.8 -13.9°
Drops below altitude 10° 00:13:08 10° 33° (NNE) 2,455 7.5 -13.6°
Sets 00:15:35 0° 31° (NNE) 3,393 8.7 -13.4°
